This is the latest recevied weather packets stored in our database for station/object W5GBS-9. If no packets are shown the sender has not sent any weather packets the latest 10 day(s).
| Time | Temp. | Humidity | Pressure | Rain* | Wind** | Luminosity | Snow |
|---|---|---|---|---|---|---|---|
| 1787463158 | 28.89° C | 100% | 1014.2 hPa | 0 mm | - | - | - |
| 1787462436 | 29.44° C | 100% | 1014.2 hPa | 0 mm | - | - | - |
| 1787461717 | 29.44° C | 100% | 1014.1 hPa | 0 mm | - | - | - |
| 1787460996 | 29.44° C | 100% | 1014.2 hPa | 0 mm | - | - | - |
| 1787460275 | 29.44° C | 100% | 1014.1 hPa | 0 mm | - | - | - |
| 1787459555 | 30° C | 100% | 1014.1 hPa | 0 mm | - | - | - |
| 1787458834 | 30° C | 100% | 1014 hPa | 0 mm | - | - | - |
| 1787458113 | 30.56° C | 100% | 1013.9 hPa | 0 mm | - | - | - |
| 1787457393 | 30.56° C | 100% | 1013.9 hPa | 0 mm | - | - | - |
| 1787456672 | 30.56° C | 100% | 1013.8 hPa | 0 mm | - | - | - |
| 1787455951 | 31.11° C | 100% | 1013.7 hPa | 0 mm | - | - | - |
| 1787455230 | 31.11° C | 100% | 1013.8 hPa | 0 mm | - | - | - |
| 1787454510 | 31.11° C | 100% | 1013.7 hPa | 0 mm | - | - | - |
| 1787453068 | 31.67° C | 100% | 1013.5 hPa | 0 mm | - | - | - |
| 1787451627 | 32.22° C | 100% | 1012.9 hPa | 0 mm | - | - | - |
| 1787450906 | 32.78° C | 100% | 1012.8 hPa | 0 mm | - | - | - |
| 1787449465 | 33.89° C | 100% | 1012.4 hPa | 0 mm | - | - | - |
| 1787448744 | 33.89° C | 100% | 1012.3 hPa | 0 mm | - | - | - |
| 1787447303 | 35° C | 100% | 1012.1 hPa | 0 mm | - | - | - |
| 1787445862 | 36.11° C | 100% | 1012.1 hPa | 0 mm | - | - | - |
| 1787444421 | 37.22° C | 100% | 1012.1 hPa | 0 mm | - | - | - |
| 1787442979 | 37.78° C | 100% | 1012.2 hPa | 0 mm | - | - | - |
| 1787442258 | 38.33° C | 100% | 1012.2 hPa | 0 mm | - | - | - |
| 1787441537 | 38.33° C | 100% | 1012.2 hPa | 0 mm | - | - | - |
| 1787440817 | 38.33° C | 100% | 1012.3 hPa | 0 mm | - | - | - |
* Rain latest hour (hover to see other rain measurements)
** Current wind speed in m/s (hover to see current wind gust speed)